Location: Drocourt
(49.0571°N, 1.7669°E)
Time: 15:16:36
(UTC+00:00)

Vanguard 2 Rocket - Pass Details

Date: 15 April 2024
Orbit: 556 x 3304 km, 32.9° (Epoch: 22 May)

Event Time Altitude Azimuth Distance (km) Brightness Sun altitude
Rises 20:16:00 0° 194° (SSW) 6,487 11.0 -14.1°
Reaches altitude 10° 20:21:40 10° 181° (S) 5,822 10.7 -14.9°
Maximum altitude 20:34:02 22° 139° (SE) 5,259 10.1 -16.5°
Enters shadow 20:39:25 20° 120° (ESE) 5,460 10.2 -17.2°
Exits shadow 20:47:07 10° 98° (E) 6,154 10.6 -18.1°
Sets 20:52:57 0° 86° (E) 6,909 11.0 -18.8°
